Hourly Data Report for October 14, 2014

All times are specified in Local Standard Time (LST). Add 1 hour to adjust for Daylight Saving Time where and when it is observed.

KUGAARUK CLIMATE
NUNAVUT

68°32'15.060" N
89°47'47.020" W
15.80 m
2303094
71407
NBB

Download Data

Hourly Data (October 2014)
Hourly Data Report for October 14, 2014
Temp Definition
°C
Dew Point Temp Definition
°C
Rel Hum Definition
%
Wind Dir Definition
10's deg

Wind Spd Definition
km/h
Visibility Definition
km
Stn Press Definition
kPa
Hmdx Definition


Wind Chill Definition


Weather Definition


TIME
00:00 -10.7 -11.7 92 7 7   100.49   -15 LegendNANA
01:00 -11.0 -12.1 92 11 7   100.51   -15 LegendNANA
02:00 -9.5 -10.6 92 11 6   100.54   -13 LegendNANA
03:00 -9.4 -10.5 92 8 5   100.54   -12 LegendNANA
04:00 -7.3 -8.2 93 13 3   100.55   -9 LegendNANA
05:00 -7.0 -7.9 93 9 4   100.56   -9 LegendNANA
06:00 -5.4 -6.2 94 1 22   100.54   -12 LegendNANA
07:00 -3.7 -4.5 94 2 23   100.56   -10 LegendNANA
08:00 -2.4 -3.4 93 6 24   100.56   -9 LegendNANA
09:00 -2.5 -3.6 92 4 22   100.61   -9 LegendNANA
10:00 -3.2 -5.3 85 4 21   100.63   -9 LegendNANA
11:00 -2.5 -3.5 93 2 20   100.65   -8 LegendNANA
12:00 -2.7 -3.9 91 3 22   100.69   -9 LegendNANA
13:00 -2.3 -3.5 91 3 20   100.72   -8 LegendNANA
14:00 -2.8 -3.7 93 1 23   100.74   -9 LegendNANA
15:00 -3.0 -4.1 92 1 24   100.77   -10 LegendNANA
16:00 -3.4 -4.4 93 2 24   100.79   -10 LegendNANA
17:00 -3.0 -3.9 93 1 23   100.81   -9 LegendNANA
18:00 -2.9 -3.8 93 1 21   100.81   -9 LegendNANA
19:00 -3.2 -4.0 94 2 24   100.78   -10 LegendNANA
20:00 -3.0 -3.7 94 2 24   100.79   -10 LegendNANA
21:00 -3.2 -4.0 94 1 21   100.82   -9 LegendNANA
22:00 -3.1 -3.8 95 1 19   100.85   -9 LegendNANA
23:00 -2.7 -4.0 91 2 20   100.86   -9 LegendNANA

Notes on Data Quality.

Legend

  • E = Estimated
  • M = Missing
  • NA = Not Available
  • ‡ = Partner data that is not subject to review by the National Climate Archives
Date modified: